Sardis Lake Weather Center

Moon Phase Calendar



Sardis Lake Water Level
Online Cameras

 


      

Current Conditions in University
6/26/2022 12:47:34 PM

94°F
Feels Like 100
Clear
Humidity
46%
Pressure
30.06"
Wind
0
Dew Point
70°F
UV Index
10/10 (Very High)
Visibility
6 mi

Hourly Forecast

Date & Time Sun, Jun 26
12:00 PM
Sun, Jun 26
1:00 PM
Sun, Jun 26
2:00 PM
Sun, Jun 26
3:00 PM
Sun, Jun 26
4:00 PM
Sun, Jun 26
5:00 PM
Sun, Jun 26
6:00 PM
Sun, Jun 26
7:00 PM
Sun, Jun 26
8:00 PM
Sun, Jun 26
9:00 PM
Sun, Jun 26
10:00 PM
Sun, Jun 26
11:00 PM
Mon, Jun 27
12:00 AM
Mon, Jun 27
1:00 AM
Mon, Jun 27
2:00 AM
Mon, Jun 27
3:00 AM
Mon, Jun 27
4:00 AM
Mon, Jun 27
5:00 AM
Mon, Jun 27
6:00 AM
Mon, Jun 27
7:00 AM
Mon, Jun 27
8:00 AM
Mon, Jun 27
9:00 AM
Mon, Jun 27
10:00 AM
Mon, Jun 27
11:00 AM
Mon, Jun 27
12:00 PM
Mon, Jun 27
1:00 PM
Mon, Jun 27
2:00 PM
Mon, Jun 27
3:00 PM
Mon, Jun 27
4:00 PM
Mon, Jun 27
5:00 PM
Mon, Jun 27
6:00 PM
Mon, Jun 27
7:00 PM
Mon, Jun 27
8:00 PM
Mon, Jun 27
9:00 PM
Mon, Jun 27
10:00 PM
Mon, Jun 27
11:00 PM
Tue, Jun 28
12:00 AM
Tue, Jun 28
1:00 AM
Tue, Jun 28
2:00 AM
Tue, Jun 28
3:00 AM
Tue, Jun 28
4:00 AM
Tue, Jun 28
5:00 AM
Tue, Jun 28
6:00 AM
Tue, Jun 28
7:00 AM
Tue, Jun 28
8:00 AM
Tue, Jun 28
9:00 AM
Tue, Jun 28
10:00 AM
Tue, Jun 28
11:00 AM
Condition
Clouds

Clear

Clouds

Clouds

Clouds

Clouds

Clouds

Rain

Rain

Rain

Rain

Rain

Rain

Rain

Clouds

Clouds

Clouds

Clouds

Clouds

Clouds

Clouds

Clouds

Clouds

Clouds

Clouds

Clouds

Clouds

Clouds

Clouds

Clouds

Clouds

Clouds

Clouds

Clouds

Clouds

Clouds

Clouds

Clouds

Clouds

Clouds

Clouds

Clouds

Clouds

Clouds

Clouds

Clouds

Clouds

Clouds
Temperature 94°F94°F94°F94°F94°F95°F95°F84°F78°F74°F74°F72°F72°F72°F70°F69°F67°F66°F67°F68°F70°F73°F76°F79°F82°F84°F86°F86°F86°F85°F82°F78°F74°F72°F72°F70°F69°F68°F67°F65°F63°F62°F61°F63°F67°F72°F77°F80°F
Feels Like 100°F100°F100°F100°F101°F101°F101°F90°F80°F76°F75°F74°F73°F73°F72°F70°F68°F67°F67°F68°F70°F73°F76°F79°F82°F84°F85°F85°F84°F83°F82°F78°F74°F72°F71°F70°F68°F67°F66°F64°F62°F61°F61°F62°F67°F72°F76°F80°F
Cloudiness 16%0%18%38%58%66%79%79%100%100%100%100%100%100%100%100%100%100%100%100%93%97%98%98%98%98%19%20%21%39%51%52%80%90%93%95%95%90%100%100%100%100%100%98%92%96%97%97%
Visibility 6 mi6 mi6 mi6 mi6 mi6 mi6 mi6 mi6 mi6 mi6 mi2 mi6 mi6 mi6 mi6 mi6 mi6 mi6 mi6 mi6 mi6 mi6 mi6 mi6 mi6 mi6 mi6 mi6 mi6 mi6 mi6 mi6 mi6 mi6 mi6 mi6 mi6 mi6 mi6 mi6 mi6 mi6 mi6 mi6 mi6 mi6 mi6 mi
Precipitation 25%25%13%10%10%12%25%51%76%100%100%100%100%100%2%2%0%0%0%0%0%0%0%0%0%0%0%0%0%0%0%0%0%0%0%0%0%0%0%0%0%0%0%0%0%0%0%0%
Humidity 45%46%45%47%46%42%42%70%84%92%94%97%98%96%94%92%89%85%79%77%70%63%58%52%48%43%37%34%33%35%42%50%56%57%55%54%56%59%62%65%71%74%76%75%65%54%45%39%
Dew Point 69°F70°F69°F70°F70°F69°F69°F73°F72°F72°F71°F71°F71°F70°F68°F66°F63°F62°F60°F60°F60°F60°F60°F60°F60°F59°F57°F55°F53°F53°F57°F58°F57°F56°F55°F53°F53°F53°F53°F53°F53°F53°F53°F54°F55°F55°F54°F53°F
Pressure 30.06"30.06"30.06"30.03"30"29.97"29.94"29.97"30"30.06"30.06"30.12"30.12"30.09"30.09"30.09"30.09"30.09"30.12"30.15"30.18"30.18"30.18"30.18"30.15"30.15"30.12"30.09"30.09"30.09"30.09"30.12"30.12"30.12"30.15"30.15"30.15"30.15"30.15"30.15"30.15"30.15"30.18"30.18"30.18"30.18"30.18"30.18"
Wind Speed 4.4 mph5.8 mph7.1 mph6.4 mph6.2 mph6.6 mph9.4 mph13.8 mph7.3 mph6.5 mph4 mph4.4 mph5.4 mph6.6 mph10.2 mph11.1 mph10.6 mph10.4 mph10 mph9.4 mph10.3 mph11.2 mph11.1 mph10.2 mph9.7 mph9.5 mph10.1 mph10.4 mph10.8 mph11.3 mph10.2 mph10.2 mph9.5 mph9.5 mph10.1 mph9.8 mph9.2 mph8.4 mph8 mph6.8 mph6.2 mph6.5 mph7 mph6.4 mph7.8 mph7.4 mph7.5 mph7.4 mph
Wind
Direction
305°
NW
318°
NW
319°
NW
322°
NW
341°
NNW

N
16°
NNE
355°
N
342°
NNW
315°
NW
302°
WNW
272°
W
284°
WNW
347°
NNW

N
13°
NNE
15°
NNE
17°
NNE
20°
NNE
26°
NNE
27°
NNE
28°
NNE
31°
NNE
31°
NNE
28°
NNE
22°
NNE
17°
NNE
15°
NNE
12°
NNE
12°
NNE

N

N
11°
N
16°
NNE
23°
NNE
35°
NE
41°
NE
43°
NE
44°
NE
37°
NE
33°
NNE
21°
NNE
38°
NE
35°
NE
50°
NE
59°
ENE
45°
NE
31°
NNE

Daily Forecast

Date High Low Precip. Humidity
Today
Jun 26

Rain
95 °F
72 °F
100%
46%
Monday
Jun 27

Rain
86 °F
66 °F
100%
43%
Tuesday
Jun 28

Clouds
88 °F
63 °F
0%
30%
Wednesday
Jun 29

Clear
94 °F
64 °F
0%
35%
Thursday
Jun 30

Rain
91 °F
72 °F
56%
49%
Friday
Jul 1

Rain
92 °F
71 °F
96%
48%
Saturday
Jul 2

Rain
86 °F
70 °F
74%
67%
Sunday
Jul 3

Rain
92 °F
73 °F
98%
49%
Monday
Jul 4

Rain
91 °F
72 °F
98%
57%
Tuesday
Jul 5

Clear
94 °F
75 °F
44%
41%
Wednesday
Jul 6

Clear
95 °F
76 °F
0%
42%
Thursday
Jul 7

Rain
98 °F
76 °F
50%
39%
Friday
Jul 8

Rain
102 °F
76 °F
77%
40%
Saturday
Jul 9

Rain
101 °F
70 °F
99%
40%
Sunday
Jul 10

Clouds
102 °F
75 °F
0%
37%
Monday
Jul 11

Clear
101 °F
79 °F
0%
37%

Temperature 8-14 Day Outlook



Precipitation 8-14 Day Outlook






About Us
Contact Us
Site Map
Search Site
Advertise With Us
   
Sardis.USLakes.info
THE SARDIS LAKE WEBSITE

Copyright 2022, Lakes Online
Privacy    |    Legal